Tracking 29892 objects as of 21-Nov-2024
HD Live streaming from Space Station
objects crossing your sky now

DELTA 1 DEB

Track DELTA 1 DEB now!
10-day predictions


NORAD ID: 7959
Int'l Code: 1972-058CP
Perigee: 671.8 km
Apogee: 1,014.4 km
Inclination: 98.0 °
Period: 101.6 minutes
Semi major axis: 7214 km
RCS: 0.1607 m2 (medium)
Launch date: July 23, 1972
Source: United States (US)
Launch site: AIR FORCE WESTERN TEST RANGE (AFWTR)

Note: This is SATELLITE DEBRIS
Your satellite tracking list
Your tracking list is empty




NASA's NSSDC Master Catalog

Two Line Element Set (TLE):
1 07959U 72058CP  24325.91706491  .00001343  00000-0  52426-3 0  9998
2 07959  97.9587 305.2742 0237406 271.5194  85.8802 14.16872258666958
Source of the keplerian elements: AFSPC